User: anonymous   Login
Location: Oberwangen
(47.4286°N, 8.9679°E)
Time: 02:57:39
(UTC+00:00)
Language:

Cosmos 1825 Rocket - Orbit

View from above orbital plane
View from above orbital plane
View from above satellite
View from above satellite

Ground track
Ground track

The orbit data is extracted from the following two-line orbital elements,

1 17567U 87024B   21260.51070768  .00000079  00000-0  66440-5 0  9993
2 17567  82.5320 185.0173 0017598 260.8323  99.0901 14.83820644866791
Epoch (UTC): 17 September 2021 12:15:25
Eccentricity: 0.0017598
inclination: 82.5320°
perigee height: 605 km
apogee height: 629 km
right ascension of ascending node: 185.0173°
argument of perigee: 260.8323°
revolutions per day: 14.83820644
mean anomaly at epoch: 99.0901°
orbit number at epoch: 86679

The dashed part of the orbit path shows where the satellite is in the earth's shadow,  

DLR